TimePDT,TemperatureF,Dew PointF,Humidity,Sea Level PressureIn,VisibilityMPH,Wind Direction,Wind SpeedMPH,Gust SpeedMPH,PrecipitationIn,Events,Conditions,WindDirDegrees,DateUTC
12:56 AM,27.0,25.0,92,30.38,10.0,SSE,4.6,-,N/A,,Clear,150,2013-04-17 07:56:00
1:56 AM,26.1,21.9,84,30.39,10.0,Calm,Calm,-,N/A,,Clear,0,2013-04-17 08:56:00
2:56 AM,21.0,18.0,88,30.39,10.0,Calm,Calm,-,N/A,,Clear,0,2013-04-17 09:56:00
3:56 AM,21.0,18.0,88,30.39,10.0,SSE,3.5,-,N/A,,Clear,160,2013-04-17 10:56:00
4:56 AM,21.0,18.0,88,30.40,10.0,South,3.5,-,N/A,,Clear,180,2013-04-17 11:56:00
5:56 AM,16.0,12.9,88,30.43,10.0,Calm,Calm,-,N/A,,Clear,0,2013-04-17 12:56:00
6:56 AM,19.0,16.0,88,30.45,10.0,South,3.5,-,N/A,,Clear,170,2013-04-17 13:56:00
7:56 AM,28.9,24.1,82,30.45,10.0,Calm,Calm,-,N/A,,Clear,0,2013-04-17 14:56:00
8:56 AM,36.0,24.1,62,30.45,10.0,Calm,Calm,-,N/A,,Clear,0,2013-04-17 15:56:00
10:56 AM,44.1,15.1,31,30.44,10.0,Variable,4.6,-,N/A,,Clear,0,2013-04-17 17:56:00
11:56 AM,46.9,17.1,30,30.43,10.0,NNW,12.7,-,N/A,,Clear,330,2013-04-17 18:56:00
12:56 PM,48.9,14.0,25,30.43,10.0,NNE,10.4,17.3,N/A,,Mostly Cloudy,30,2013-04-17 19:56:00
1:56 PM,48.9,12.0,23,30.42,10.0,North,10.4,-,N/A,,Mostly Cloudy,350,2013-04-17 20:56:00
2:56 PM,50.0,12.0,22,30.41,10.0,Variable,4.6,-,N/A,,Clear,0,2013-04-17 21:56:00
3:56 PM,51.1,14.0,23,30.40,10.0,NW,4.6,16.1,N/A,,Clear,320,2013-04-17 22:56:00
4:56 PM,48.9,16.0,27,30.40,10.0,Variable,4.6,-,N/A,,Mostly Cloudy,0,2013-04-17 23:56:00
5:56 PM,48.9,24.1,38,30.41,10.0,West,13.8,20.7,N/A,,Mostly Cloudy,270,2013-04-18 00:56:00
6:56 PM,46.9,25.0,42,30.42,10.0,West,10.4,-,N/A,,Mostly Cloudy,280,2013-04-18 01:56:00
7:56 PM,46.0,26.1,46,30.40,10.0,WNW,13.8,-,N/A,,Mostly Cloudy,290,2013-04-18 02:56:00
8:56 PM,42.1,27.0,55,30.41,10.0,WNW,9.2,-,N/A,,Partly Cloudy,300,2013-04-18 03:56:00
9:56 PM,37.9,27.0,65,30.42,10.0,NNW,5.8,-,N/A,,Clear,330,2013-04-18 04:56:00
10:56 PM,33.1,25.0,72,30.42,10.0,Calm,Calm,-,N/A,,Clear,0,2013-04-18 05:56:00
11:56 PM,30.9,25.0,79,30.41,10.0,South,4.6,-,N/A,,Scattered Clouds,170,2013-04-18 06:56:00